Wind_Speed
20 20 20 21 21 21 20 20 19 19 18 17 17 16 15 14 13 13 12 11 10 9 9 8 8 8 8 7 7 7 7 7 7 7 6 6 7 7 8 9 10 11 12
23 22 21 22 23 23 23 22 22 21 21 20 19 18 17 16 16 15 14 13 12 11 11 10 10 9 9 8 8 8 8 8 8 7 7 7 8 8 9 10 11 12 13
25 24 24 24 24 25 25 25 24 24 23 22 21 21 20 19 18 17 16 15 14 13 12 12 11 11 10 9 9 9 9 9 9 8 8 8 9 9 10 11 12 13 13
27 27 27 27 26 27 27 27 27 26 25 24 24 23 22 21 20 19 18 17 16 15 14 13 13 12 11 10 10 11 10 10 10 9 9 9 10 10 11 11 12 13 14
30 29 29 30 29 29 29 29 29 28 27 26 26 26 25 24 23 22 21 20 18 17 16 15 14 13 12 12 11 12 11 11 11 10 10 10 11 11 11 12 13 14 15
32 32 32 32 32 32 32 31 31 30 30 29 28 27 27 26 25 24 23 22 21 19 18 17 16 15 14 13 13 12 12 12 12 11 11 11 11 12 12 13 13 14 15
35 35 34 34 34 34 34 34 33 33 32 31 30 30 29 29 27 26 25 24 23 21 20 19 18 16 15 15 14 13 13 13 13 13 12 12 12 13 13 13 14 15 16
37 37 37 36 36 36 36 36 36 35 35 34 33 32 32 31 30 29 28 27 25 24 22 21 20 18 17 16 15 14 14 14 14 14 13 13 13 14 14 14 15 16 16
40 39 39 39 38 39 38 38 38 38 37 36 36 35 34 33 32 31 30 29 28 26 24 23 21 20 18 17 17 16 15 15 14 14 14 14 14 15 15 16 16 17 18
42 41 40 40 40 40 40 40 40 40 39 39 38 37 36 36 35 33 32 31 29 28 26 24 23 22 20 19 18 17 17 16 16 15 15 15 15 16 16 17 17 18 19
44 44 44 43 42 42 41 42 42 42 41 41 41 40 39 38 37 35 34 33 31 30 28 26 25 24 22 21 20 19 18 17 17 16 16 16 16 17 17 18 19 19 20
46 46 45 45 44 44 43 43 44 43 43 43 42 42 41 40 39 37 36 35 33 31 30 28 27 25 24 23 22 21 20 19 18 18 17 17 18 18 19 19 20 21 21
47 47 47 47 46 46 45 45 45 45 44 44 44 43 42 42 40 39 38 36 35 33 31 30 28 27 26 24 23 22 21 21 20 19 19 19 19 20 20 21 21 22 23
49 48 48 49 48 48 48 47 47 47 46 46 45 45 44 43 42 41 39 38 36 35 33 32 30 29 27 26 25 24 23 22 21 21 20 20 20 21 21 22 23 23 24
49 48 50 50 49 49 49 49 49 48 48 47 47 46 45 45 44 43 41 39 38 36 35 34 32 30 29 28 27 26 25 24 23 22 22 21 21 22 22 23 24 24 25
48 48 48 50 50 50 50 50 50 50 50 49 48 47 46 46 46 45 43 41 40 38 36 35 34 32 30 29 28 27 26 25 24 24 23 22 23 23 24 24 25 26 27
49 48 49 51 50 51 51 51 51 52 51 50 49 49 48 48 47 46 44 43 41 40 38 36 35 34 32 31 30 29 28 27 26 25 24 24 24 25 25 26 26 27 28
49 47 48 50 51 51 51 51 51 52 52 51 50 50 50 49 48 48 46 44 43 41 40 38 37 35 34 32 32 31 30 28 27 27 26 26 26 26 27 27 28 28 30
47 47 48 48 50 51 51 50 51 51 51 52 52 51 51 50 50 49 47 45 44 43 42 40 38 37 35 34 33 32 31 30 29 28 28 27 27 28 28 29 29 30 31
46 46 46 47 49 49 50 50 51 51 52 52 53 52 51 51 50 50 48 46 46 45 43 41 39 38 37 36 35 34 32 32 31 30 30 29 29 29 30 30 31 32 33
45 45 45 46 48 49 49 50 50 51 52 52 53 53 51 51 50 51 50 48 46 45 44 43 40 39 39 38 36 35 34 33 32 31 31 31 31 31 31 32 33 33 34
43 44 44 45 47 49 49 49 49 50 51 52 51 51 51 51 50 50 50 49 48 46 45 43 42 41 40 38 37 36 35 34 33 33 32 32 32 32 33 33 34 35 35
41 42 43 44 46 47 47 49 49 49 50 52 51 51 51 52 51 50 50 48 47 45 44 43 43 42 40 39 38 37 36 35 34 34 33 33 33 33 34 34 35 36 36
39 40 41 43 45 46 46 48 49 49 48 50 51 51 51 51 51 51 51 49 48 46 45 43 43 43 41 40 39 38 37 36 35 34 34 34 34 34 35 35 36 37 37
36 38 39 41 43 45 46 46 48 49 48 48 50 50 51 51 49 50 50 50 48 46 45 43 43 42 41 41 39 38 37 36 36 36 35 35 35 35 36 36 37 38 38
36 38 39 40 42 45 46 47 48 48 47 47 48 49 51 50 51 50 50 50 49 47 45 43 42 42 42 41 40 39 38 37 36 36 36 36 35 36 36 37 38 38 39
Wind_Direction
246 244 243 242 241 241 241 241 241 242 243 244 244 242 243 245 248 250 251 252 256 261 267 274 281 286 285 288 289 288 292 296 303 306 311 314 317 324 329 333 335 337 338
248 245 244 243 242 241 241 241 242 242 243 244 244 243 244 247 249 249 250 251 256 261 266 271 277 282 281 281 284 285 288 291 297 301 305 308 311 318 324 328 331 333 334
249 247 245 244 243 242 242 242 243 243 243 244 243 243 245 247 248 249 250 252 256 259 263 267 272 277 277 277 281 282 286 289 291 295 301 304 307 312 318 323 327 329 331
248 246 245 244 243 243 243 243 243 243 243 244 244 244 245 246 248 249 250 253 255 258 260 263 267 271 274 275 279 280 283 286 285 289 296 300 303 308 314 319 322 325 327
249 247 245 245 244 244 244 243 243 243 243 244 245 245 245 246 247 249 250 252 255 257 258 260 264 267 269 272 276 279 280 282 281 285 292 296 300 305 311 315 318 321 323
250 248 246 245 245 244 244 244 243 243 243 243 244 244 245 246 246 248 250 252 254 256 257 258 261 263 266 268 272 275 277 278 278 283 290 293 298 303 307 311 315 319 321
250 248 246 245 245 244 244 244 244 244 244 243 243 244 246 246 246 247 249 251 253 255 256 257 258 260 262 265 268 271 274 275 276 281 286 290 296 300 304 308 312 316 319
251 248 247 246 245 245 244 244 244 244 244 243 243 245 246 246 246 246 248 251 253 254 255 256 255 256 259 262 264 267 271 274 275 278 282 288 294 298 302 306 311 314 316
250 249 247 246 246 245 245 244 244 243 244 244 244 244 244 245 245 245 246 249 252 254 255 254 253 254 257 259 261 264 268 272 274 276 279 284 290 295 300 304 308 311 313
249 248 247 246 246 246 245 244 244 244 243 243 244 243 243 244 244 244 245 247 250 253 253 252 251 253 255 257 259 262 266 270 273 274 277 281 287 292 297 301 305 308 311
249 248 246 245 245 245 245 244 244 244 243 243 243 242 242 242 243 244 244 245 247 250 252 250 250 251 253 255 258 260 263 267 271 273 276 280 285 289 294 298 302 305 309
248 248 247 246 245 245 245 244 244 244 243 243 242 242 241 241 242 243 243 244 245 248 250 249 249 250 251 254 257 259 261 265 268 272 275 279 284 288 291 296 299 303 307
248 247 247 246 246 245 244 244 243 243 243 243 242 241 240 240 241 241 242 242 243 245 247 248 248 249 251 253 256 258 260 263 267 270 274 279 283 287 290 294 298 301 305
247 246 246 245 245 244 243 243 242 242 242 242 241 240 239 239 239 240 240 241 243 244 245 246 247 248 250 252 254 256 258 261 265 269 273 278 283 287 290 293 296 300 303
247 246 246 245 245 244 243 242 241 241 240 240 240 240 239 238 238 238 239 241 242 243 243 244 245 247 249 250 253 256 257 260 264 269 272 277 282 286 289 292 295 299 301
247 246 245 245 244 244 243 241 240 239 239 239 238 238 237 237 237 238 239 240 241 241 243 243 244 246 247 249 252 255 257 259 263 267 271 276 281 285 289 292 294 297 300
248 247 245 244 244 244 242 241 239 238 237 237 237 237 236 235 235 237 238 239 240 240 241 243 244 245 246 248 251 254 256 259 262 266 270 275 280 285 288 291 294 296 299
248 247 246 244 243 243 241 239 238 238 237 236 236 236 235 234 234 235 237 238 239 240 240 242 243 244 245 247 250 254 256 258 261 265 269 274 279 283 287 291 293 295 298
249 247 245 243 243 241 239 238 236 236 236 235 235 235 233 233 233 234 236 237 239 240 240 241 243 243 245 247 249 253 255 257 260 264 269 273 278 282 286 289 292 295 298
248 246 244 241 240 239 237 236 235 234 235 235 234 234 233 232 232 233 234 236 238 239 240 240 241 243 244 246 249 252 255 257 260 263 268 273 278 282 285 289 292 294 297
247 245 244 241 238 235 236 236 235 234 233 233 233 233 232 232 231 232 233 234 236 237 239 240 240 242 243 245 248 251 254 257 260 263 268 272 277 282 286 289 292 294 297
246 243 243 241 237 235 235 235 235 234 233 232 233 231 231 231 231 231 232 234 235 236 238 239 240 241 242 244 247 251 254 256 259 263 267 272 276 280 285 288 292 294 297
246 244 242 241 237 235 234 234 233 232 231 231 230 231 230 230 230 230 231 232 234 236 237 238 239 241 242 244 246 250 254 256 260 264 268 272 276 280 284 287 291 294 296
244 242 241 240 237 234 234 234 232 230 230 229 229 230 229 229 230 230 230 232 234 235 238 238 238 240 241 243 246 250 253 256 260 263 267 271 276 280 284 287 290 293 296
243 241 240 239 236 233 231 231 230 229 229 228 229 229 228 228 229 229 230 232 232 234 237 238 239 240 241 243 246 250 253 256 259 262 266 271 275 279 283 286 289 292 295
244 242 239 239 236 232 229 229 229 229 228 227 228 229 229 229 229 230 231 232 233 233 235 237 238 240 241 244 246 249 252 255 258 262 265 270 274 278 282 286 289 291 294
Height
5851 5853 5854 5855 5856 5858 5859 5860 5861 5862 5863 5865 5866 5867 5868 5869 5869 5870 5870 5871 5871 5871 5871 5871 5870 5870 5870 5870 5869 5869 5868 5867 5866 5865 5864 5863 5862 5861 5860 5858 5857 5855 5854
5847 5849 5850 5852 5853 5854 5855 5857 5858 5859 5861 5862 5863 5864 5865 5866 5867 5868 5868 5869 5869 5869 5869 5869 5869 5869 5869 5868 5868 5868 5867 5866 5865 5864 5863 5862 5861 5860 5859 5857 5856 5854 5852
5843 5845 5846 5848 5849 5850 5852 5853 5855 5856 5858 5859 5861 5862 5863 5864 5865 5865 5866 5867 5867 5867 5867 5867 5867 5867 5867 5867 5867 5866 5866 5865 5864 5863 5862 5861 5860 5859 5857 5856 5854 5853 5851
5838 5840 5841 5843 5845 5846 5848 5849 5851 5853 5854 5856 5857 5859 5860 5861 5862 5863 5864 5864 5865 5865 5865 5865 5866 5866 5866 5865 5865 5865 5864 5863 5862 5861 5861 5860 5859 5857 5856 5854 5853 5851 5849
5832 5834 5836 5838 5839 5841 5843 5845 5847 5848 5850 5852 5854 5855 5856 5858 5859 5860 5861 5862 5862 5863 5863 5863 5863 5864 5864 5863 5863 5863 5862 5861 5861 5860 5859 5858 5857 5856 5854 5853 5851 5849 5847
5825 5827 5829 5832 5834 5836 5838 5839 5841 5843 5846 5847 5849 5851 5852 5854 5855 5857 5858 5859 5859 5860 5860 5861 5861 5861 5861 5861 5861 5861 5860 5859 5859 5858 5857 5856 5855 5854 5852 5851 5849 5847 5845
5817 5820 5822 5825 5827 5829 5832 5834 5836 5838 5840 5842 5844 5846 5848 5850 5851 5853 5854 5855 5856 5857 5857 5858 5858 5859 5859 5859 5859 5858 5858 5857 5856 5856 5855 5854 5853 5852 5850 5849 5847 5845 5843
5809 5812 5814 5817 5819 5822 5825 5827 5830 5832 5834 5837 5839 5841 5843 5845 5846 5848 5850 5851 5852 5853 5854 5855 5855 5855 5856 5856 5856 5856 5855 5855 5854 5853 5853 5852 5850 5849 5848 5846 5844 5842 5840
5800 5803 5806 5809 5811 5814 5817 5820 5823 5825 5828 5830 5833 5835 5837 5839 5841 5843 5845 5846 5848 5849 5850 5851 5852 5852 5852 5853 5853 5853 5852 5852 5851 5851 5850 5849 5848 5846 5845 5843 5842 5840 5837
5790 5794 5797 5800 5803 5806 5809 5812 5815 5818 5820 5823 5826 5828 5831 5833 5835 5837 5839 5841 5843 5844 5846 5847 5848 5848 5849 5849 5849 5849 5849 5849 5848 5847 5847 5846 5845 5843 5842 5840 5839 5837 5834
5780 5783 5787 5790 5793 5796 5800 5803 5806 5809 5812 5815 5818 5821 5824 5826 5828 5831 5833 5835 5837 5839 5841 5842 5843 5844 5845 5845 5846 5846 5846 5845 5845 5844 5844 5843 5841 5840 5839 5837 5835 5833 5831
5769 5772 5776 5780 5783 5787 5790 5793 5797 5800 5803 5807 5810 5813 5816 5819 5822 5824 5826 5829 5831 5833 5835 5837 5839 5840 5840 5841 5841 5842 5842 5841 5841 5841 5840 5839 5838 5836 5835 5833 5831 5829 5827
5757 5761 5764 5768 5772 5776 5780 5783 5786 5790 5794 5797 5801 5805 5808 5811 5814 5817 5819 5822 5825 5827 5830 5831 5833 5835 5836 5836 5837 5837 5838 5837 5837 5837 5836 5835 5834 5832 5831 5829 5827 5825 5823
5744 5748 5752 5755 5760 5764 5768 5772 5776 5780 5784 5788 5792 5796 5799 5803 5806 5809 5812 5815 5818 5821 5823 5825 5828 5829 5830 5831 5832 5833 5833 5833 5833 5832 5832 5831 5830 5828 5827 5825 5823 5820 5818
5731 5735 5738 5743 5747 5751 5755 5760 5764 5769 5773 5777 5782 5786 5790 5794 5798 5801 5805 5808 5811 5814 5817 5819 5821 5824 5825 5826 5827 5828 5828 5828 5828 5828 5827 5826 5825 5823 5822 5820 5818 5816 5813
5718 5722 5726 5729 5734 5738 5743 5748 5752 5757 5761 5766 5771 5776 5781 5785 5789 5793 5797 5800 5804 5807 5810 5812 5815 5817 5819 5820 5821 5822 5823 5823 5823 5823 5822 5821 5820 5819 5817 5815 5813 5811 5808
5705 5708 5712 5716 5721 5725 5730 5734 5739 5744 5749 5755 5760 5765 5770 5775 5780 5784 5788 5792 5796 5799 5802 5805 5808 5810 5813 5814 5815 5817 5817 5818 5818 5818 5817 5816 5815 5813 5812 5810 5808 5805 5802
5691 5695 5699 5703 5707 5711 5716 5721 5726 5731 5737 5743 5749 5754 5760 5765 5770 5775 5779 5784 5788 5791 5794 5797 5801 5803 5806 5808 5809 5810 5811 5812 5812 5812 5811 5811 5810 5808 5806 5804 5802 5799 5797
5678 5682 5685 5690 5693 5698 5703 5708 5713 5719 5725 5731 5736 5742 5749 5755 5760 5765 5770 5775 5779 5782 5786 5790 5793 5796 5799 5801 5802 5804 5805 5806 5806 5806 5806 5805 5804 5802 5801 5799 5796 5794 5791
5664 5668 5672 5676 5680 5685 5690 5696 5701 5707 5713 5718 5724 5731 5738 5744 5749 5755 5760 5765 5770 5774 5778 5781 5785 5789 5791 5794 5795 5797 5798 5799 5800 5800 5799 5799 5798 5796 5795 5792 5790 5787 5784
5652 5656 5660 5664 5668 5672 5677 5683 5689 5695 5701 5707 5713 5720 5726 5733 5739 5745 5750 5755 5760 5765 5769 5773 5777 5780 5783 5786 5788 5790 5792 5793 5793 5794 5793 5792 5792 5790 5788 5786 5784 5781 5778
5639 5644 5648 5651 5656 5661 5666 5672 5677 5683 5689 5695 5701 5708 5716 5722 5728 5734 5740 5746 5751 5756 5760 5765 5769 5772 5775 5778 5781 5783 5784 5786 5786 5787 5786 5786 5785 5783 5782 5779 5777 5774 5771
5628 5632 5636 5640 5644 5649 5655 5660 5665 5671 5677 5683 5690 5698 5705 5712 5718 5724 5730 5736 5741 5746 5751 5756 5760 5764 5767 5770 5773 5776 5777 5779 5779 5780 5779 5779 5778 5776 5775 5772 5770 5767 5763
5619 5622 5626 5629 5633 5639 5644 5649 5655 5660 5666 5673 5680 5687 5694 5702 5708 5714 5720 5726 5731 5737 5742 5747 5751 5755 5758 5762 5765 5768 5770 5771 5772 5772 5772 5772 5771 5769 5767 5765 5762 5759 5756
5609 5612 5616 5619 5623 5628 5633 5639 5644 5651 5657 5663 5669 5676 5684 5691 5698 5704 5710 5716 5722 5728 5733 5738 5742 5746 5750 5754 5756 5759 5761 5763 5764 5765 5765 5764 5763 5762 5760 5757 5755 5752 5748
5601 5603 5606 5610 5614 5618 5623 5629 5635 5641 5647 5653 5660 5667 5674 5681 5688 5694 5700 5707 5713 5719 5724 5729 5734 5738 5741 5745 5748 5750 5752 5754 5755 5756 5757 5756 5756 5754 5752 5750 5747 5744 5741